Warning: Javascript must be enabled to use all the features on this page!


Page Loading - Please Wait...

Click to hideNews Bulletins

USGS 04189260 Blanchard River at Ottawa OH

PROVISIONAL DATA SUBJECT TO REVISION

Click to hidestation-specific text
Station operated in cooperation with the Village of Ottawa and the National Streamflow Information Program.
 04189260 Blanchard River at Ottawa, OH
 LOCATION.--Lat 41°01'01", long 84°02'49", Putnam County, OH, Hydrologic 
     Unit 04100008, on right bank at downstream side of Oak Street, 200 ft. upstream 
     of B&O railroad bridge, 800 ft. upstream of SR65 bridge, 1,200 ft. southeast of 
     intersection of SR65 and US RT224 in the village of Ottawa, OH.
 DRAINAGE AREA.--628 mi2.
 PERIOD OF RECORD.--October 2009 to current water year.

Boating safety tips
Available Parameters Available Period
All 2 Available Parameters for this site
  
00065 Gage height 2015-04-04  2015-08-02
00060 Discharge 2009-10-01  2015-08-02

Graph
Graph w/ stats
Graph w/o stats
Graph w/ (up to 3) parms
Table
Tab-separated
Days  (7)
 

  -- or --
Begin date
 

End date
 

Summary of all available data for this site
Instantaneous-data availability statement
Gage height, feet
TIMEJul 26Jul 27Jul 28Jul 29Jul 30Jul 31Aug 1Aug 2
00:00 EDT7.49P  7.16P  6.82P  6.54P  7.25P  6.47P  6.22P  6.07P  
00:30 EDT7.48P  7.15P  6.82P  6.54P  7.27P  6.46P  6.22P  6.07P  
01:00 EDT7.46P  7.14P  6.81P  6.54P  7.28P  6.46P  6.21P  6.07P  
01:30 EDT7.45P  7.13P  6.81P  6.54P  7.29P  6.46P  6.21P  6.06P  
02:00 EDT7.44P  7.12P  6.80P  6.54P  7.28P  6.45P  6.20P  6.06P  
02:30 EDT7.43P  7.12P  6.80P  6.54P  7.28P  6.45P  6.20P  6.06P  
03:00 EDT7.42P  7.11P  6.79P  6.54P  7.27P  6.44P  6.19P  6.06P  
03:30 EDT7.41P  7.10P  6.79P  6.53P  7.25P  6.44P  6.19P  6.06P  
04:00 EDT7.40P  7.10P  6.78P  6.53P  7.23P  6.43P  6.18P  6.05P  
04:30 EDT7.39P  7.09P  6.78P  6.53P  7.20P  6.43P  6.17P  6.05P  
05:00 EDT7.38P  7.08P  6.77P  6.52P  7.18P  6.42P  6.17P  6.05P  
05:30 EDT7.37P  7.07P  6.77P  6.52P  7.15P  6.42P  6.16P  6.04P  
06:00 EDT7.36P  7.06P  6.76P  6.52P  7.12P  6.41P  6.16P  6.04P  
06:30 EDT7.35P  7.06P  6.75P  6.51P  7.09P  6.40P  6.15P  6.04P  
07:00 EDT7.34P  7.05P  6.75P  6.51P  7.06P  6.40P  6.15P  6.03P  
07:30 EDT7.33P  7.05P  6.74P  6.50P  7.03P  6.39P  6.15P  6.03P  
08:00 EDT7.32P  7.04P  6.74P  6.50P  7.00P  6.39P  6.14P  6.02P  
08:30 EDT7.32P  7.04P  6.73P  6.50P  6.97P  6.38P  6.14P  6.02P  
09:00 EDT7.31P  7.03P  6.73P  6.49P  6.94P  6.38P  6.14P  6.02P  
09:30 EDT7.30P  7.02P  6.72P  6.49P  6.91P  6.37P  6.13P  6.01P  
10:00 EDT7.30P  7.02P  6.72P  6.48P  6.88P  6.36P  6.13P   
10:30 EDT7.30P  7.01P  6.71P  6.48P  6.85P  6.36P  6.13P   
11:00 EDT7.30P  7.01P  6.71P  6.48P  6.83P  6.35P  6.12P   
11:30 EDT7.29P  7.00P  6.70P  6.47P  6.80P  6.35P  6.12P   
12:00 EDT7.29P  7.00P  6.70P  6.47P  6.78P  6.35P  6.12P   
12:30 EDT7.29P  6.99P  6.69P  6.47P  6.75P  6.34P  6.11P   
13:00 EDT7.28P  6.99P  6.69P  6.47P  6.73P  6.34P  6.11P   
13:30 EDT7.28P  6.98P  6.67P  6.46P  6.71P  6.33P  6.11P   
14:00 EDT7.28P  6.97P  6.67P  6.46P  6.69P  6.33P  6.11P   
14:30 EDT7.27P  6.97P  6.66P  6.46P  6.68P  6.32P  6.10P   
15:00 EDT7.27P  6.96P  6.65P  6.46P  6.65P  6.31P  6.11P   
15:30 EDT7.27P  6.95P  6.64P  6.45P  6.64P  6.31P  6.10P   
16:00 EDT7.26P  6.94P  6.63P  6.55P  6.62P  6.30P  6.10P   
16:30 EDT7.25P  6.93P  6.63P  6.55P  6.60P  6.30P  6.10P   
17:00 EDT7.25P  6.93P  6.62P  6.56P  6.59P  6.30P  6.09P   
17:30 EDT7.25P  6.92P  6.61P  6.56P  6.58P  6.30P  6.10P   
18:00 EDT7.24P  6.91P  6.60P  6.55P  6.56P  6.29P  6.09P   
18:30 EDT7.23P  6.91P  6.60P  6.55P  6.55P  6.28P  6.09P   
19:00 EDT7.23P  6.90P  6.59P  6.57P  6.54P  6.28P  6.09P   
19:30 EDT7.22P  6.89P  6.59P  6.87P  6.53P  6.27P  6.09P   
20:00 EDT7.22P  6.88P  6.58P  6.94P  6.52P  6.26P  6.08P   
20:30 EDT7.21P  6.87P  6.57P  7.01P  6.51P  6.26P  6.08P   
21:00 EDT7.21P  6.87P  6.57P  7.05P  6.51P  6.25P  6.08P   
21:30 EDT7.20P  6.86P  6.56P  7.09P  6.50P  6.25P  6.08P   
22:00 EDT7.19P  6.86P  6.56P  7.12P  6.49P  6.24P  6.08P   
22:30 EDT7.18P  6.85P  6.55P  7.16P  6.49P  6.24P  6.08P   
23:00 EDT7.17P  6.84P  6.55P  7.19P  6.48P  6.23P  6.07P   
23:30 EDT7.16P  6.83P  6.55P  7.22P  6.48P  6.23P  6.07P   
COUNT4848484848484820
MAX7.497.166.827.227.296.476.226.07
MIN7.166.836.556.456.486.236.076.01

Explanation
  P  Provisional data subject to revision.